Location: Songkhla
(7.2000°N, 100.6000°E)
Time: 19:44:18
(UTC+07:00)

ISS - Pass Details

Date: 18 April 2026
Orbit: 414 x 424 km, 51.6° (Epoch: 19 May)

Event Time Altitude Azimuth Distance (km) Brightness Sun altitude
Rises 02:26:51 0° 204° (SSW) 2,338 - -53.1°
Reaches altitude 10° 02:29:00 10° 197° (SSW) 1,477 - -52.6°
Maximum altitude 02:32:09 40° 125° (SE) 617 - -51.9°
Drops below altitude 10° 02:35:18 10° 54° (NE) 1,480 - -51.2°
Sets 02:37:27 0° 46° (NE) 2,343 - -50.8°
